Location: Newark
(49.8348°N, 24.0280°E)
Time: 02:15:14
(UTC+00:00)

Explorer 7 - Visible Passes

Search period start: 23 January 2020 00:00
Search period end: 02 February 2020 00:00
Orbit: 485 x 679 km, 50.3° (Epoch: 22 January)

Date Brightness Start Highest point End Pass type
(mag) Time Alt. Az. Time Alt. Az. Time Alt. Az.
23 Jan 8.5 03:32:32 24° SSE 03:32:32 24° SSE 03:34:39 10° SE visible
24 Jan 8.9 03:37:33 17° S 03:37:33 17° S 03:39:02 10° SSE visible
25 Jan 9.3 03:42:39 11° S 03:42:39 11° S 03:43:02 10° S visible
